Location: *
(57.8420°S, 159.8600°W)
Time: 13:08:39
(UTC+00:00)

NOAA 12 - Pass Details

Date: 18 May 2021
Orbit: 796 x 814 km, 98.5° (Epoch: 22 June)

Event Time Altitude Azimuth Distance (km) Brightness Sun altitude
Exits shadow 05:15:54 - 163° (SSE) 2,810 6.7 -21.8°
Reaches altitude 10° 05:16:50 10° 162° (SSE) 2,445 6.4 -21.9°
Maximum altitude 05:22:16 84° 73° (ENE) 835 4.0 -22.6°
Drops below altitude 10° 05:27:38 10° 344° (NNW) 2,407 6.7 -23.3°
Sets 05:29:57 0° 343° (NNW) 3,329 7.5 -23.7°
